This is the latest recevied weather packets stored in our database for station/object K2MRS. If no packets are shown the sender has not sent any weather packets the latest 10 day(s).
| Time | Temp. | Humidity | Pressure | Rain* | Wind** | Luminosity | Snow |
|---|---|---|---|---|---|---|---|
| 1777959025 | 11.11° C | 90% | 1015.7 hPa | 1.02 mm | - | 0 W/m² | - |
| 1777958856 | 11.11° C | 89% | 1015.7 hPa | 1.02 mm | - | 0 W/m² | - |
| 1777958425 | 11.11° C | 89% | 1015.7 hPa | 1.27 mm | - | 0 W/m² | - |
| 1777958125 | 11.11° C | 89% | 1015.8 hPa | 1.27 mm | - | 0 W/m² | - |
| 1777957825 | 11.67° C | 89% | 1015.8 hPa | 1.02 mm | - | 0 W/m² | - |
| 1777957525 | 11.67° C | 89% | 1015.9 hPa | 1.02 mm | - | 0 W/m² | - |
| 1777957224 | 11.67° C | 88% | 1015.9 hPa | 0.76 mm | - | 0 W/m² | - |
| 1777956924 | 11.67° C | 88% | 1016 hPa | 0.76 mm | - | 0 W/m² | - |
| 1777956625 | 11.67° C | 88% | 1016.2 hPa | 0.51 mm | - | 0 W/m² | - |
| 1777956325 | 11.67° C | 88% | 1016.3 hPa | 0.51 mm | - | 0 W/m² | - |
| 1777956061 | 11.67° C | 87% | 1016.3 hPa | 0.25 mm | - | 0 W/m² | - |
| 1777955851 | 11.67° C | 87% | 1016.4 hPa | 0.25 mm | - | 0 W/m² | - |
| 1777955421 | 11.67° C | 87% | 1016.4 hPa | 0.25 mm | - | 0 W/m² | - |
| 1777955121 | 11.67° C | 86% | 1016.4 hPa | 0.25 mm | - | 0 W/m² | - |
| 1777954950 | 12.22° C | 86% | 1016.4 hPa | 0 mm | - | 0 W/m² | - |
| 1777954513 | 12.22° C | 86% | 1016.4 hPa | 0 mm | - | 0 W/m² | - |
| 1777954373 | 12.22° C | 85% | 1016.4 hPa | 0 mm | - | 0 W/m² | - |
| 1777510223 | 20.56° C | 51% | 1016.6 hPa | 0 mm | - | 396 W/m² | - |
| 1777510053 | 20.56° C | 49% | 1016.4 hPa | 0 mm | - | 415 W/m² | - |
| 1777509623 | 20.56° C | 49% | 1016.7 hPa | 0 mm | - | 436 W/m² | - |
| 1777509323 | 20.56° C | 48% | 1016.6 hPa | 0 mm | - | 452 W/m² | - |
| 1777509023 | 21.11° C | 47% | 1016.7 hPa | 0 mm | - | 473 W/m² | - |
| 1777508722 | 21.11° C | 48% | 1016.7 hPa | 0 mm | - | 490 W/m² | - |
| 1777508553 | 21.11° C | 47% | 1016.8 hPa | 0 mm | - | 508 W/m² | - |
| 1777508121 | 21.11° C | 47% | 1016.8 hPa | 0 mm | - | 526 W/m² | - |
* Rain latest hour (hover to see other rain measurements)
** Current wind speed in m/s (hover to see current wind gust speed)